| time (UTC) | temp C | wind direction | speed KPH | gust KPH | rain 1hr cm | rain 24hr cm | rain mn cm | humidity % | barometer mb |
| 20260502170504 | 26 | 122 | 8.0 | 19.3 | 0.00 | 0.00 | 0.00 | 11 | 1023.5 |
| 20260502164003 | 25 | 138 | 1.6 | 11.3 | 0.00 | 0.00 | 0.00 | 12 | 1023.7 |
| 20260502163504 | 25 | 99 | 4.8 | 9.7 | 0.00 | 0.00 | 0.00 | 11 | 1023.7 |
| 20260502163004 | 25 | 103 | 1.6 | 4.8 | 0.00 | 0.00 | 0.00 | 11 | 1023.8 |
| 20260502162504 | 25 | 115 | 3.2 | 11.3 | 0.00 | 0.00 | 0.00 | 12 | 1023.7 |
| 20260502162004 | 25 | 137 | 3.2 | 11.3 | 0.00 | 0.00 | 0.00 | 12 | 1023.7 |
| 20260502161004 | 25 | 130 | 1.6 | 4.8 | 0.00 | 0.00 | 0.00 | 12 | 1023.7 |
| 20260502152004 | 23 | 136 | 1.6 | 12.9 | 0.00 | 0.00 | 0.00 | 13 | 1023.4 |
| 20260502151504 | 23 | 146 | 1.6 | 4.8 | 0.00 | 0.00 | 0.00 | 14 | 1023.4 |
| 20260502151003 | 23 | 158 | 0.0 | 4.8 | 0.00 | 0.00 | 0.00 | 14 | 1023.4 |
| 20260502150504 | 22 | 165 | 6.4 | 9.7 | 0.00 | 0.00 | 0.00 | 14 | 1023.4 |
| 20260502130504 | 14 | 245 | 0.0 | 0.0 | 0.00 | 0.00 | 0.00 | 27 | 1022.2 |
| 20260502123004 | 13 | 244 | 0.0 | 0.0 | 0.00 | 0.00 | 0.00 | 28 | 1021.8 |
| 20260502122504 | 13 | 243 | 0.0 | 0.0 | 0.00 | 0.00 | 0.00 | 28 | 1022.1 |
| 20260502122003 | 13 | 243 | 0.0 | 0.0 | 0.00 | 0.00 | 0.00 | 27 | 1022.1 |
| 20260502121504 | 14 | 246 | 0.0 | 0.0 | 0.00 | 0.00 | 0.00 | 27 | 1022.1 |
| 20260502121003 | 14 | 247 | 0.0 | 0.0 | 0.00 | 0.00 | 0.00 | 27 | 1022.1 |
| 20260502120504 | 14 | 245 | 0.0 | 4.8 | 0.00 | 0.00 | 0.00 | 27 | 1022.1 |
| 20260502115504 | 15 | 240 | 0.0 | 0.0 | 0.00 | 0.00 | 0.00 | 27 | 1022.1 |
| 20260502115004 | 15 | 244 | 0.0 | 0.0 | 0.00 | 0.00 | 0.00 | 27 | 1022.1 |
| 20260502114504 | 15 | 239 | 0.0 | 0.0 | 0.00 | 0.00 | 0.00 | 26 | 1022.0 |
| 20260502114004 | 15 | 233 | 0.0 | 0.0 | 0.00 | 0.00 | 0.00 | 26 | 1022.1 |
| 20260502113504 | 15 | 239 | 0.0 | 0.0 | 0.00 | 0.00 | 0.00 | 26 | 1022.1 |
| 20260502113004 | 15 | 238 | 0.0 | 0.0 | 0.00 | 0.00 | 0.00 | 26 | 1022.1 |
| 20260502112504 | 15 | 239 | 0.0 | 0.0 | 0.00 | 0.00 | 0.00 | 26 | 1022.1 |
| 20260502112003 | 15 | 243 | 0.0 | 0.0 | 0.00 | 0.00 | 0.00 | 26 | 1022.1 |
| 20260502111503 | 15 | 240 | 0.0 | 0.0 | 0.00 | 0.00 | 0.00 | 26 | 1022.0 |
| 20260502111004 | 15 | 235 | 0.0 | 0.0 | 0.00 | 0.00 | 0.00 | 26 | 1022.2 |
| 20260502110504 | 15 | 236 | 0.0 | 0.0 | 0.00 | 0.00 | 0.00 | 27 | 1022.2 |
| 20260502110004 | 15 | 241 | 0.0 | 0.0 | 0.00 | 0.00 | 0.00 | 27 | 1022.1 |
| 20260502105504 | 14 | 246 | 0.0 | 0.0 | 0.00 | 0.00 | 0.00 | 27 | 1022.1 |
| 20260502105004 | 15 | 245 | 0.0 | 0.0 | 0.00 | 0.00 | 0.00 | 26 | 1022.0 |
| 20260502104503 | 15 | 243 | 0.0 | 0.0 | 0.00 | 0.00 | 0.00 | 26 | 1022.0 |
| 20260502103503 | 15 | 241 | 0.0 | 0.0 | 0.00 | 0.00 | 0.00 | 26 | 1022.0 |
| 20260502103004 | 15 | 242 | 0.0 | 0.0 | 0.00 | 0.00 | 0.00 | 26 | 1022.0 |
| 20260502101504 | 15 | 240 | 0.0 | 0.0 | 0.00 | 0.00 | 0.00 | 26 | 1021.9 |
| 20260502101003 | 15 | 240 | 0.0 | 0.0 | 0.00 | 0.00 | 0.00 | 26 | 1022.0 |
| 20260502100504 | 15 | 240 | 0.0 | 0.0 | 0.00 | 0.00 | 0.00 | 26 | 1022.0 |
| 20260502091504 | 15 | 249 | 0.0 | 0.0 | 0.00 | 0.00 | 0.00 | 25 | 1021.9 |
| 20260502090503 | 15 | 249 | 0.0 | 0.0 | 0.00 | 0.00 | 0.00 | 25 | 1022.0 |
| 20260502071004 | 17 | 219 | 0.0 | 0.0 | 0.00 | 0.00 | 0.00 | 22 | 1022.1 |
| 20260502070003 | 17 | 231 | 0.0 | 0.0 | 0.00 | 0.00 | 0.00 | 22 | 1021.9 |
| 20260502065503 | 17 | 221 | 0.0 | 0.0 | 0.00 | 0.00 | 0.00 | 22 | 1021.9 |
| 20260502064504 | 18 | 242 | 0.0 | 0.0 | 0.00 | 0.00 | 0.00 | 22 | 1022.0 |
| 20260502064004 | 18 | 236 | 0.0 | 0.0 | 0.00 | 0.00 | 0.00 | 21 | 1021.9 |
| 20260502063503 | 18 | 232 | 0.0 | 0.0 | 0.00 | 0.00 | 0.00 | 21 | 1021.8 |
| 20260502062504 | 18 | 230 | 0.0 | 0.0 | 0.00 | 0.00 | 0.00 | 21 | 1021.9 |
| 20260502062004 | 18 | 227 | 0.0 | 0.0 | 0.00 | 0.00 | 0.00 | 21 | 1021.9 |
| 20260502061504 | 18 | 230 | 0.0 | 0.0 | 0.00 | 0.00 | 0.00 | 20 | 1021.8 |
| 20260502060504 | 19 | 223 | 0.0 | 0.0 | 0.00 | 0.00 | 0.00 | 20 | 1021.9 |
| 20260502060003 | 19 | 227 | 0.0 | 0.0 | 0.00 | 0.00 | 0.00 | 20 | 1021.9 |
| 20260502055504 | 19 | 221 | 0.0 | 0.0 | 0.00 | 0.00 | 0.00 | 20 | 1021.9 |
| 20260502055004 | 19 | 215 | 0.0 | 0.0 | 0.00 | 0.00 | 0.00 | 20 | 1021.9 |
| 20260502054504 | 19 | 220 | 0.0 | 0.0 | 0.00 | 0.00 | 0.00 | 20 | 1022.0 |
| 20260502054004 | 18 | 226 | 0.0 | 0.0 | 0.00 | 0.00 | 0.00 | 20 | 1021.9 |
| 20260502053004 | 19 | 234 | 0.0 | 0.0 | 0.00 | 0.00 | 0.00 | 20 | 1021.9 |
| 20260502052503 | 19 | 237 | 1.6 | 4.8 | 0.00 | 0.00 | 0.00 | 20 | 1021.9 |
| 20260502051004 | 18 | 227 | 0.0 | 0.0 | 0.00 | 0.00 | 0.00 | 20 | 1021.7 |
| 20260502050503 | 18 | 233 | 0.0 | 0.0 | 0.00 | 0.00 | 0.00 | 20 | 1021.7 |
| 20260502050003 | 18 | 237 | 0.0 | 0.0 | 0.00 | 0.00 | 0.00 | 20 | 1021.7 |
| 20260502045504 | 18 | 238 | 0.0 | 0.0 | 0.00 | 0.00 | 0.00 | 20 | 1021.7 |
| 20260502045004 | 18 | 276 | 0.0 | 0.0 | 0.00 | 0.00 | 0.00 | 20 | 1021.6 |
| 20260502044504 | 18 | 288 | 0.0 | 0.0 | 0.00 | 0.00 | 0.00 | 20 | 1021.6 |
| 20260502044004 | 18 | 288 | 0.0 | 0.0 | 0.00 | 0.00 | 0.00 | 20 | 1021.6 |
| 20260502043505 | 17 | 326 | 0.0 | 0.0 | 0.00 | 0.00 | 0.00 | 20 | 1021.5 |
| 20260502043004 | 18 | 9 | 0.0 | 0.0 | 0.00 | 0.00 | 0.00 | 20 | 1021.4 |
| 20260502042504 | 18 | 17 | 0.0 | 0.0 | 0.00 | 0.00 | 0.00 | 20 | 1021.5 |
| 20260502041004 | 18 | 19 | 0.0 | 0.0 | 0.00 | 0.00 | 0.00 | 20 | 1021.2 |
| 20260502040504 | 18 | 19 | 0.0 | 0.0 | 0.00 | 0.00 | 0.00 | 20 | 1021.0 |
| 20260502035504 | 18 | 20 | 0.0 | 0.0 | 0.00 | 0.00 | 0.00 | 20 | 1021.0 |
| 20260502035003 | 18 | 20 | 0.0 | 0.0 | 0.00 | 0.00 | 0.00 | 18 | 1020.9 |
| 20260502034504 | 20 | 28 | 0.0 | 0.0 | 0.00 | 0.00 | 0.00 | 18 | 1020.7 |
| 20260502034004 | 20 | 28 | 0.0 | 0.0 | 0.00 | 0.00 | 0.00 | 17 | 1020.6 |
| 20260502033503 | 21 | 28 | 0.0 | 0.0 | 0.00 | 0.00 | 0.00 | 18 | 1020.5 |
| 20260502032503 | 21 | 28 | 0.0 | 0.0 | 0.00 | 0.00 | 0.00 | 18 | 1020.3 |
| 20260502032005 | 21 | 28 | 0.0 | 0.0 | 0.00 | 0.00 | 0.00 | 17 | 1020.4 |
| 20260502031504 | 22 | 28 | 0.0 | 0.0 | 0.00 | 0.00 | 0.00 | 17 | 1020.3 |
| 20260502030512 | 22 | 28 | 0.0 | 0.0 | 0.00 | 0.00 | 0.00 | 16 | 1020.2 |
| 20260502030041 | 22 | 28 | 0.0 | 0.0 | 0.00 | 0.00 | 0.00 | 16 | 1020.3 |
| 20260502025504 | 23 | 28 | 0.0 | 0.0 | 0.00 | 0.00 | 0.00 | 16 | 1020.2 |
| 20260502025004 | 23 | 28 | 0.0 | 0.0 | 0.00 | 0.00 | 0.00 | 16 | 1020.1 |
| 20260502024504 | 23 | 28 | 0.0 | 0.0 | 0.00 | 0.00 | 0.00 | 16 | 1020.1 |
| 20260502024004 | 24 | 28 | 0.0 | 0.0 | 0.00 | 0.00 | 0.00 | 15 | 1020.1 |
| 20260502023504 | 24 | 27 | 0.0 | 0.0 | 0.00 | 0.00 | 0.00 | 15 | 1020.1 |
| 20260502023004 | 25 | 28 | 0.0 | 0.0 | 0.00 | 0.00 | 0.00 | 15 | 1020.0 |
| 20260502022004 | 25 | 34 | 0.0 | 0.0 | 0.00 | 0.00 | 0.00 | 15 | 1020.0 |
| 20260502021004 | 26 | 39 | 4.8 | 12.9 | 0.00 | 0.00 | 0.00 | 14 | 1019.9 |
| 20260502020004 | 26 | 46 | 3.2 | 11.3 | 0.00 | 0.00 | 0.00 | 14 | 1019.8 |
| 20260502015505 | 26 | 40 | 9.7 | 16.1 | 0.00 | 0.00 | 0.00 | 14 | 1019.8 |
| 20260502014504 | 27 | 78 | 3.2 | 9.7 | 0.00 | 0.00 | 0.00 | 14 | 1019.7 |
| 20260502013004 | 27 | 20 | 9.7 | 16.1 | 0.00 | 0.00 | 0.00 | 14 | 1019.6 |
| 20260502012504 | 27 | 31 | 8.0 | 20.9 | 0.00 | 0.00 | 0.00 | 14 | 1019.6 |
| 20260502011504 | 27 | 77 | 4.8 | 11.3 | 0.00 | 0.00 | 0.00 | 14 | 1019.6 |
| 20260502011005 | 27 | 84 | 4.8 | 16.1 | 0.00 | 0.00 | 0.00 | 14 | 1019.5 |
| 20260502010504 | 27 | 19 | 16.1 | 22.5 | 0.00 | 0.00 | 0.00 | 14 | 1019.6 |
| 20260502010004 | 28 | 31 | 4.8 | 14.5 | 0.00 | 0.00 | 0.00 | 14 | 1019.6 |
| 20260502005504 | 28 | 50 | 4.8 | 16.1 | 0.00 | 0.00 | 0.00 | 14 | 1019.6 |
| 20260502005003 | 28 | 40 | 6.4 | 14.5 | 0.00 | 0.00 | 0.00 | 14 | 1019.6 |
| 20260502004503 | 28 | 39 | 8.0 | 16.1 | 0.00 | 0.00 | 0.00 | 14 | 1019.5 |
| 20260502004005 | 28 | 80 | 3.2 | 4.8 | 0.00 | 0.00 | 0.00 | 14 | 1019.5 |
| 20260502003503 | 28 | 92 | 6.4 | 12.9 | 0.00 | 0.00 | 0.00 | 14 | 1019.5 |
| 20260502003004 | 28 | 96 | 4.8 | 16.1 | 0.00 | 0.00 | 0.00 | 14 | 1019.6 |
| 20260502002504 | 28 | 39 | 11.3 | 19.3 | 0.00 | 0.00 | 0.00 | 14 | 1019.5 |
| 20260502002004 | 28 | 7 | 8.0 | 14.5 | 0.00 | 0.00 | 0.00 | 15 | 1019.5 |
| 20260502001004 | 28 | 54 | 3.2 | 11.3 | 0.00 | 0.00 | 0.00 | 15 | 1019.7 |
| 20260502000504 | 28 | 57 | 4.8 | 19.3 | 0.00 | 0.00 | 0.00 | 15 | 1019.7 |
| 20260502000004 | 28 | 28 | 9.7 | 19.3 | 0.00 | 0.00 | 0.00 | 15 | 1019.7 |
| 20260501235503 | 28 | 110 | 4.8 | 12.9 | 0.00 | 0.00 | 0.00 | 15 | 1019.7 |
| 20260501235004 | 28 | 43 | 4.8 | 16.1 | 0.00 | 0.00 | 0.00 | 15 | 1019.7 |
| 20260501234504 | 28 | 68 | 3.2 | 11.3 | 0.00 | 0.00 | 0.00 | 15 | 1019.7 |
| 20260501234004 | 28 | 46 | 9.7 | 19.3 | 0.00 | 0.00 | 0.00 | 15 | 1019.7 |
| 20260501233504 | 28 | 47 | 11.3 | 19.3 | 0.00 | 0.00 | 0.00 | 15 | 1019.7 |
| 20260501233004 | 28 | 66 | 3.2 | 4.8 | 0.00 | 0.00 | 0.00 | 15 | 1019.7 |
| 20260501232504 | 28 | 86 | 8.0 | 16.1 | 0.00 | 0.00 | 0.00 | 15 | 1019.7 |
| 20260501232004 | 28 | 59 | 3.2 | 14.5 | 0.00 | 0.00 | 0.00 | 15 | 1019.7 |
| 20260501231505 | 28 | 31 | 9.7 | 20.9 | 0.00 | 0.00 | 0.00 | 15 | 1019.8 |
| 20260501231004 | 28 | 32 | 11.3 | 20.9 | 0.00 | 0.00 | 0.00 | 15 | 1019.9 |
| 20260501230005 | 28 | 35 | 9.7 | 19.3 | 0.00 | 0.00 | 0.00 | 15 | 1019.8 |
| 20260501225503 | 28 | 8 | 14.5 | 20.9 | 0.00 | 0.00 | 0.00 | 15 | 1019.8 |
| 20260501225003 | 28 | 35 | 16.1 | 24.1 | 0.00 | 0.00 | 0.00 | 15 | 1019.9 |
| 20260501224503 | 28 | 20 | 16.1 | 22.5 | 0.00 | 0.00 | 0.00 | 15 | 1020.1 |
| 20260501223502 | 28 | 14 | 6.4 | 16.1 | 0.00 | 0.00 | 0.00 | 16 | 1020.2 |
| 20260501223003 | 28 | 99 | 4.8 | 12.9 | 0.00 | 0.00 | 0.00 | 16 | 1020.3 |
| 20260501222504 | 28 | 102 | 9.7 | 16.1 | 0.00 | 0.00 | 0.00 | 16 | 1020.2 |
| 20260501222003 | 28 | 77 | 8.0 | 19.3 | 0.00 | 0.00 | 0.00 | 16 | 1020.3 |
| 20260501221503 | 28 | 78 | 4.8 | 14.5 | 0.00 | 0.00 | 0.00 | 16 | 1020.4 |
| 20260501221004 | 28 | 68 | 8.0 | 22.5 | 0.00 | 0.00 | 0.00 | 16 | 1020.6 |
| 20260501220503 | 28 | 23 | 11.3 | 19.3 | 0.00 | 0.00 | 0.00 | 16 | 1020.7 |
| 20260501220004 | 28 | 332 | 4.8 | 16.1 | 0.00 | 0.00 | 0.00 | 16 | 1020.7 |
| 20260501214503 | 28 | 63 | 3.2 | 9.7 | 0.00 | 0.00 | 0.00 | 17 | 1020.7 |
| 20260501214003 | 28 | 54 | 3.2 | 14.5 | 0.00 | 0.00 | 0.00 | 16 | 1020.9 |
| 20260501213503 | 28 | 17 | 9.7 | 19.3 | 0.00 | 0.00 | 0.00 | 17 | 1020.8 |
| 20260501213003 | 28 | 87 | 8.0 | 19.3 | 0.00 | 0.00 | 0.00 | 16 | 1020.8 |
| 20260501212503 | 28 | 66 | 4.8 | 16.1 | 0.00 | 0.00 | 0.00 | 17 | 1020.9 |
| 20260501212003 | 28 | 274 | 8.0 | 19.3 | 0.00 | 0.00 | 0.00 | 17 | 1020.9 |
| 20260501211503 | 28 | 41 | 9.7 | 16.1 | 0.00 | 0.00 | 0.00 | 17 | 1020.9 |
| 20260501211003 | 28 | 61 | 3.2 | 12.9 | 0.00 | 0.00 | 0.00 | 18 | 1021.0 |
| 20260501210503 | 28 | 1 | 11.3 | 24.1 | 0.00 | 0.00 | 0.00 | 18 | 1021.0 |
| 20260501210003 | 28 | 357 | 9.7 | 19.3 | 0.00 | 0.00 | 0.00 | 17 | 1021.0 |
| 20260501205003 | 28 | 72 | 8.0 | 16.1 | 0.00 | 0.00 | 0.00 | 18 | 1021.0 |
| 20260501204503 | 27 | 47 | 8.0 | 19.3 | 0.00 | 0.00 | 0.00 | 18 | 1021.1 |
| 20260501204004 | 27 | 349 | 16.1 | 22.5 | 0.00 | 0.00 | 0.00 | 18 | 1021.1 |
| 20260501203503 | 27 | 3 | 19.3 | 32.2 | 0.00 | 0.00 | 0.00 | 18 | 1021.0 |
| 20260501203003 | 27 | 329 | 4.8 | 14.5 | 0.00 | 0.00 | 0.00 | 17 | 1021.0 |
| 20260501202503 | 28 | 355 | 9.7 | 16.1 | 0.00 | 0.00 | 0.00 | 16 | 1021.0 |
| 20260501202003 | 28 | 71 | 11.3 | 22.5 | 0.00 | 0.00 | 0.00 | 18 | 1021.1 |
| 20260501201502 | 28 | 34 | 8.0 | 19.3 | 0.00 | 0.00 | 0.00 | 18 | 1021.1 |
| 20260501200503 | 27 | 309 | 4.8 | 12.9 | 0.00 | 0.00 | 0.00 | 17 | 1021.2 |
| 20260501200003 | 27 | 2 | 16.1 | 25.7 | 0.00 | 0.00 | 0.00 | 16 | 1021.4 |
| 20260501195502 | 27 | 17 | 9.7 | 24.1 | 0.00 | 0.00 | 0.00 | 17 | 1021.2 |
| 20260501195004 | 27 | 313 | 8.0 | 22.5 | 0.00 | 0.00 | 0.00 | 16 | 1021.5 |
| 20260501194503 | 27 | 9 | 19.3 | 24.1 | 0.00 | 0.00 | 0.00 | 16 | 1021.5 |
| 20260501193503 | 27 | 22 | 16.1 | 24.1 | 0.00 | 0.00 | 0.00 | 17 | 1021.6 |
| 20260501193003 | 27 | 23 | 16.1 | 22.5 | 0.00 | 0.00 | 0.00 | 18 | 1021.6 |
| 20260501192504 | 27 | 5 | 16.1 | 27.4 | 0.00 | 0.00 | 0.00 | 17 | 1021.7 |
| 20260501192003 | 27 | 45 | 11.3 | 25.7 | 0.00 | 0.00 | 0.00 | 16 | 1021.7 |
| 20260501191503 | 27 | 34 | 14.5 | 22.5 | 0.00 | 0.00 | 0.00 | 18 | 1021.7 |
| 20260501191003 | 27 | 9 | 14.5 | 25.7 | 0.00 | 0.00 | 0.00 | 17 | 1021.8 |
| 20260501190504 | 27 | 37 | 12.9 | 22.5 | 0.00 | 0.00 | 0.00 | 18 | 1021.8 |
| 20260501190003 | 27 | 22 | 16.1 | 25.7 | 0.00 | 0.00 | 0.00 | 18 | 1021.9 |
| 20260501185003 | 26 | 24 | 14.5 | 20.9 | 0.00 | 0.00 | 0.00 | 20 | 1022.1 |
| 20260501184504 | 26 | 38 | 11.3 | 25.7 | 0.00 | 0.00 | 0.00 | 20 | 1022.1 |
| 20260501184003 | 26 | 25 | 11.3 | 22.5 | 0.00 | 0.00 | 0.00 | 20 | 1022.1 |
| 20260501183503 | 26 | 17 | 14.5 | 24.1 | 0.00 | 0.00 | 0.00 | 20 | 1022.2 |
| 20260501183003 | 26 | 47 | 11.3 | 20.9 | 0.00 | 0.00 | 0.00 | 21 | 1022.2 |
| 20260501182503 | 26 | 39 | 12.9 | 22.5 | 0.00 | 0.00 | 0.00 | 21 | 1022.2 |
| 20260501182004 | 26 | 30 | 16.1 | 27.4 | 0.00 | 0.00 | 0.00 | 21 | 1022.3 |
| 20260501181504 | 26 | 37 | 11.3 | 24.1 | 0.00 | 0.00 | 0.00 | 21 | 1022.3 |
| 20260501181003 | 26 | 346 | 14.5 | 24.1 | 0.00 | 0.00 | 0.00 | 20 | 1022.4 |
| 20260501180503 | 26 | 19 | 16.1 | 22.5 | 0.00 | 0.00 | 0.00 | 21 | 1022.4 |